Regional Weather Roundup
Issued by NWS Newport/Morehead, NC

Current Version | Previous Version | Graphics & Text | Print | Product List | Glossary Off
Versions: 1 2 3 4 5 6 7 8 9 10 11 12 13 14 15 16 17 18 19 20 21 22 23 24 25 26 27 28 29 30 31 32 33 34 35 36 37 38 39 40 41 42 43 44 45 46 47 48 49 50
099 ASUS42 KMHX 231114 RWRMHX WEATHER ROUNDUP FOR EASTERN NORTH CAROLINA NATIONAL WEATHER SERVICE NEWPORT/MOREHEAD CITY NC 700 AM EDT WED AUG 23 2017 NOTE: "FAIR" INDICATES FEW OR NO CLOUDS BELOW 12,000 FEET WITH NO SIGNIFICANT WEATHER AND/OR OBSTRUCTIONS TO VISIBILITY NCZ015>017-031-032-045>047-102-103-231200- NORTH COAST CITY SKY/WX TMP DP RH WIND PRES REMARKS EDENTON PTCLDY 79 75 88 SW6 29.89S ELIZABETH CITY CLEAR 77 76 96 SW8 29.88R KITTY HAWK SUNNY 78 73 84 SW5 29.88S MANTEO CLEAR 78 74 88 SW12 29.90S $$ NCZ045>047-081-094-103-104-231200- CENTRAL COAST CITY SKY/WX TMP DP RH WIND PRES REMARKS FRISCO CLEAR 80 78 94 W9 29.92R $$ NCZ095-097-098-100-101-231200- SOUTHERN COAST CITY SKY/WX TMP DP RH WIND PRES REMARKS BEAUFORT PTCLDY 81 77 88 W9 29.92R CEDAR ISLAND NOT AVBL JACKSONVILLE PTCLDY 77 76 96 VRB6 29.90F PINEY ISLAND SUNNY N/A N/A N/A SW7 29.92R WILMINGTON PTCLDY 79 74 84 W10 29.93S $$ NCZ011>013-027>030-043-044-078>080-089-090>093-098-231200- COASTAL PLAIN CITY SKY/WX TMP DP RH WIND PRES REMARKS AHOSKIE N/A 74 73 99 CALM 29.88S CLINTON CLOUDY 75 75 100 CALM 29.92R ELIZABETHTOWN NOT AVBL GOLDSBORO MOCLDY 76 76 100 CALM 29.89F GREENVILLE CLEAR 77 75 94 SW5 29.92S HAVELOCK PTCLDY 77 74 90 SW5 29.92S KENANSVILLE CLEAR 73 73 100 CALM 29.91S FOG KINSTON PTCLDY 75 73 94 SW7 29.91S NEW BERN CLEAR 75 74 96 SW6 29.91F RICHLANDS CLEAR 74 73 97 S6 29.91F ROCKY MOUNT PTCLDY 75 75 100 S6 29.88S WASHINGTON CLEAR 75 73 93 SW7 29.90S WHITEVILLE NOT AVBL $$ AMZ130-135-150-152-154-156-158-170-250-252-270-ANZ085-086-088-633-658-670-231200- MARINE OBSERVATIONS STATION/POSITION TIME TEMP WIND PRES WAVE SWELL AIR SEA DIR/SP/G HT/PER HT/PER (UTC) (F) (DEG/KT/KT) (MB) (FT/S) (FT/S) CHESAPEAKE LIGHT NOT AVBL 64 E VA BEACH 1050 79 78 240/ 14/ 16 1011.8 5/10 3/10 DUCK 1042 79 67 230/ 14/ 18 1011.6 2 E DUCK 1030 70 N/A 2/10 2/11 OREGON INLET 1042 81 83 220/ 16/ 21 1012.1 13E OREGON INLT 1048 78 N/A 3/ 9 2/ 9 HATTERAS CG 1042 80 83 240/ 8/ 11 1012.9 DIAMOND BUOY 1050 83 85 250/ 16/ 19 1012.7 4/ 9 2/ 9 CAPE LOOKOUT 1100 78 270/ 11/ 13 1012.7 BEAUFORT LAB 1042 81 81 270/ 5/ 9 1012.6 30 SE NEW RVR IN 1008 79 84 270/ 17/ 21 1013.4 30 SE NEW RVR IN 1043 83 N/A 5/ 8 2/11 27 SE WRIGHTSVLE 1008 83 83 220/ 16/ 21 1013.1 5 SE WRIGHTSVLE 1008 81 84 260/ 12/ 16 1013.2 225 S CAPE HAT 1050 82 84 250/ 4/ 6 1015.2 3/ 8 3/ 8 41 SE CHARLESTON 1100 83 84 230/ 16/ 19 1013.8 $$

USA.gov is the U.S. government's official web portal to all federal, state and local government web resources and services.